Weather History for Tekamah, NE

Change the Weather History Date:

Saturday, March 17, 2012

  Actual Average Record
Temperature  
Mean Temperature 73 °F -  
Max Temperature 84 °F 48 °F 84 °F (2012)
Min Temperature 62 °F 27 °F 6 °F (1962)
Cooling Degree Days 8    
Growing Degree Days 23 (Base 50)    
Moisture  
Dew Point 59 °F    
Average Humidity 69    
Maximum Humidity 88    
Minimum Humidity 38    
Precipitation  
Precipitation 0.00 in - - ()
Sea Level Pressure  
Sea Level Pressure 29.72 in    
Wind  
Wind Speed 16 mph (SSE)    
Max Wind Speed 30 mph    
Max Gust Speed 37 mph    
Visibility 8 miles    
Events      
Averages and records for this station are not official NWS values.
T = Trace of Precipitation, MM = Missing Value Source: NWS Daily Summary

Daily Weather History Graph

Daily Weather History Graph

Search for Another Location

Airport:

Trip Planner

Search our weather history database for the weather conditions in past years. The results will help you decide how hot, cold, wet, or windy it might be!

Date:

Astronomy

Mar. 17, 2012 Rise Set
Actual Time 7:32 AM CDT 7:34 PM CDT
Civil Twilight 7:04 AM CDT 8:01 PM CDT
Nautical Twilight 6:32 AM CDT 8:34 PM CDT
Astronomical Twilight 5:59 AM CDT 9:07 PM CDT
Moon 4:38 AM CDT 2:55 PM CDT
Length of Visible Light 12h 57m
Length of Day
12h 01m
Waning Crescent, 23% of the Moon is Illuminated
Mar 17
Waning Crescent
Mar 22
New
Mar 30
First Quarter
Apr 6
Full
Apr 13
Last Quarter

Hourly Weather History & Observations

Time (CDT) Temp. Heat Index Dew Point Humidity Pressure Visibility Wind Dir Wind Speed Gust Speed Precip Events Conditions
12:54 AM 63.0 °F - 55.9 °F 78% 29.77 in 7.0 mi SE 12.7 mph - N/A   Clear
1:54 AM 64.0 °F - 57.0 °F 78% 29.76 in 7.0 mi South 10.4 mph - N/A   Clear
2:54 AM 64.0 °F - 57.9 °F 80% 29.76 in 7.0 mi South 12.7 mph - N/A   Clear
3:54 AM 63.0 °F - 57.9 °F 84% 29.74 in 6.0 mi SSE 11.5 mph - N/A   Haze
4:46 AM 64.4 °F - 60.8 °F 88% 29.77 in 6.0 mi SSE 16.1 mph - N/A   Mostly Cloudy
4:54 AM 64.0 °F - 60.1 °F 87% 29.73 in 6.0 mi SSE 16.1 mph - N/A   Overcast
5:43 AM 62.6 °F - 59.0 °F 88% 29.76 in 6.0 mi SSE 17.3 mph - N/A   Scattered Clouds
5:54 AM 63.0 °F - 59.0 °F 87% 29.73 in 6.0 mi SSE 15.0 mph - N/A   Partly Cloudy
6:29 AM 62.6 °F - 59.0 °F 88% 29.77 in 6.0 mi SSE 13.8 mph - N/A   Mostly Cloudy
6:54 AM 64.0 °F - 59.0 °F 84% 29.73 in 6.0 mi SSE 16.1 mph - N/A   Haze
7:54 AM 64.0 °F - 59.0 °F 84% 29.75 in 6.0 mi SSE 12.7 mph - N/A   Haze
8:54 AM 64.9 °F - 59.0 °F 81% 29.75 in 5.0 mi SSE 13.8 mph - N/A   Haze
9:06 AM 64.4 °F - 60.8 °F 88% 29.78 in 6.0 mi SSE 15.0 mph - N/A   Haze
9:54 AM 66.9 °F - 60.1 °F 79% 29.75 in 7.0 mi South 18.4 mph - N/A   Overcast
10:54 AM 71.1 °F - 60.1 °F 68% 29.75 in 8.0 mi South 24.2 mph 32.2 mph N/A   Mostly Cloudy
11:35 AM 71.6 °F - 60.8 °F 69% 29.77 in 8.0 mi South 21.9 mph 29.9 mph N/A   Overcast
11:54 AM 72.0 °F - 60.1 °F 66% 29.74 in 8.0 mi South 23.0 mph - N/A   Overcast
12:14 PM 73.4 °F - 60.8 °F 65% 29.76 in 8.0 mi South 21.9 mph - N/A   Overcast
12:41 PM 73.4 °F - 60.8 °F 65% 29.75 in 9.0 mi SSE 20.7 mph 27.6 mph N/A   Overcast
12:54 PM 75.0 °F - 60.1 °F 60% 29.72 in 8.0 mi South 20.7 mph 31.1 mph N/A   Overcast
1:54 PM 79.0 °F - 60.1 °F 52% 29.68 in 8.0 mi South 23.0 mph 32.2 mph N/A   Scattered Clouds
2:54 PM 82.0 °F 82.0 °F 57.9 °F 44% 29.65 in 9.0 mi South 24.2 mph 36.8 mph N/A   Scattered Clouds
3:54 PM 84.0 °F 83.3 °F 57.0 °F 40% 29.62 in 9.0 mi South 29.9 mph 35.7 mph N/A   Clear
4:54 PM 84.0 °F 83.0 °F 55.9 °F 38% 29.62 in 8.0 mi South 25.3 mph 34.5 mph N/A   Clear
5:54 PM 82.9 °F 82.1 °F 55.9 °F 39% 29.63 in 10.0 mi South 28.8 mph 36.8 mph N/A   Clear
6:54 PM 80.1 °F 80.2 °F 55.9 °F 43% 29.64 in 10.0 mi South 24.2 mph 32.2 mph N/A   Clear
7:54 PM 75.0 °F - 55.9 °F 51% 29.65 in 10.0 mi South 15.0 mph - N/A   Clear
8:54 PM 73.0 °F - 55.9 °F 55% 29.68 in 10.0 mi South 17.3 mph - N/A   Clear
9:54 PM 72.0 °F - 57.9 °F 61% 29.69 in 9.0 mi South 15.0 mph - N/A   Partly Cloudy
10:54 PM 70.0 °F - 57.9 °F 65% 29.70 in 9.0 mi South 15.0 mph - N/A   Clear
11:54 PM 68.0 °F - 59.0 °F 73% 29.70 in 9.0 mi SSE 16.1 mph - N/A   Clear